Date String (YYYY-MM-DD hh:mm:ss) UTC,Instrument flags,absolute air pressure of the measurement (hPa),sample flow rate (lpm),inlet stack bypass flow (lpm),air temperature of the measurement (°C),ambient temperature measured by the external sensor (°C),aerosol sample conditioner tube jacket temperature (°C),OPC LED temperature (°C),internal box temperature (°C),relative humidity of the measurement (%),span deviation,mass concentration of particles derived from Lorenz-Mie calculation of OPC scattering (μg/m³),mass concentration of particles derived from Lorenz-Mie calculation of OPC scattering (μg/m³),mass concentration of particles derived from Lorenz-Mie calculation of OPC scattering (μg/m³)
DateTimeUTC,F1_M11,P_M11,Q1_M11,Q2_M11,T1_M11,T2_M11,T3_M11,T4_M11,T5_M11,U1_M11,ZSPAN_M11,X2_M11,X0_M11,X1_M11
2024-01-29 05:00:00,SystemResetWarning,0837.0,5.00,000.00,025.5,024.1,000.0,033.9,026.8,12.3,0000.0,0002.89,0008.14,0002.22
2024-01-29 05:01:00,SystemResetWarning,0837.0,5.00,000.00,025.5,024.1,000.0,033.9,026.8,12.3,0000.0,0002.74,0007.82,0002.14
2024-01-29 05:02:00,SystemResetWarning,0836.9,5.00,000.00,025.5,024.1,000.0,033.8,026.8,12.3,0000.0,0002.65,0007.73,0002.11
2024-01-29 05:03:00,SystemResetWarning,0836.9,5.01,000.00,025.4,024.1,000.0,033.8,026.8,12.3,0000.0,0002.54,0008.02,0002.03
2024-01-29 05:04:00,SystemResetWarning,0836.9,5.01,000.00,025.4,024.1,000.0,033.8,026.8,12.3,0000.0,0002.53,0008.34,0001.96
2024-01-29 05:05:00,SystemResetWarning,0836.9,5.00,000.00,025.4,024.1,000.0,033.8,026.8,12.4,0000.0,0002.42,0008.33,0001.88
2024-01-29 05:06:00,SystemResetWarning,0837.0,4.99,000.00,025.4,024.1,000.0,033.8,026.7,12.6,0000.0,0002.35,0007.76,0001.85
2024-01-29 05:07:00,SystemResetWarning,0836.9,5.00,000.00,025.4,024.0,000.0,033.8,026.7,12.6,0000.0,0002.31,0007.89,0001.84
2024-01-29 05:08:00,SystemResetWarning,0836.9,5.00,000.00,025.4,024.0,000.0,033.8,026.7,12.5,0000.0,0002.29,0007.73,0001.83
2024-01-29 05:09:00,SystemResetWarning,0836.9,5.00,000.00,025.4,024.0,000.0,033.8,026.7,12.4,0000.0,0002.27,0007.48,0001.81
2024-01-29 05:10:00,SystemResetWarning,0837.0,5.00,000.00,025.3,024.0,000.0,033.7,026.7,12.4,0000.0,0002.18,0006.60,0001.74
2024-01-29 05:11:00,SystemResetWarning,0837.0,5.01,000.00,025.3,024.0,000.0,033.7,026.7,12.4,0000.0,0002.10,0006.83,0001.68
2024-01-29 05:12:00,SystemResetWarning,0837.0,5.00,000.00,025.3,024.0,000.0,033.7,026.7,12.6,0000.0,0002.08,0006.69,0001.66
2024-01-29 05:13:00,SystemResetWarning,0837.0,5.00,000.00,025.3,024.0,000.0,033.7,026.7,12.6,0000.0,0002.06,0006.70,0001.62
2024-01-29 05:14:00,SystemResetWarning,0837.0,5.00,000.00,025.3,023.9,000.0,033.7,026.6,12.6,0000.0,0002.06,0006.53,0001.59
2024-01-29 05:15:00,SystemResetWarning,0837.0,5.00,000.00,025.3,023.9,000.0,033.7,026.6,12.7,0000.0,0001.98,0006.68,0001.55
2024-01-29 05:16:00,SystemResetWarning,0837.0,5.00,000.00,025.3,023.9,000.0,033.7,026.6,12.6,0000.0,0001.91,0006.46,0001.52
2024-01-29 05:17:00,SystemResetWarning,0837.0,5.00,000.00,025.3,023.9,000.0,033.7,026.6,12.6,0000.0,0001.87,0006.43,0001.49
2024-01-29 05:18:00,SystemResetWarning,0836.9,5.00,000.00,025.3,023.9,000.0,033.7,026.6,12.6,0000.0,0001.86,0005.32,0001.45
2024-01-29 05:19:00,SystemResetWarning,0837.0,5.00,000.00,025.2,023.9,000.0,033.6,026.6,12.6,0000.0,0001.88,0005.32,0001.43
2024-01-29 05:20:00,SystemResetWarning,0836.9,5.00,000.00,025.2,023.8,000.0,033.6,026.6,12.7,0000.0,0001.86,0005.29,0001.42
2024-01-29 05:21:00,SystemResetWarning,0836.9,5.00,000.00,025.2,023.8,000.0,033.6,026.6,12.6,0000.0,0001.85,0005.02,0001.42
2024-01-29 05:22:00,SystemResetWarning,0836.9,5.00,000.00,025.2,023.8,000.0,033.6,026.6,12.6,0000.0,0001.88,0004.76,0001.43
2024-01-29 05:23:00,SystemResetWarning,0837.0,5.00,000.00,025.2,023.8,000.0,033.6,026.6,12.5,0000.0,0001.92,0004.88,0001.43
2024-01-29 05:24:00,SystemResetWarning,0836.9,5.00,000.00,025.2,023.8,000.0,033.6,026.6,12.4,0000.0,0001.96,0005.29,0001.44
2024-01-29 05:25:00,SystemResetWarning,0837.0,5.00,000.00,025.2,023.8,000.0,033.6,026.5,12.4,0000.0,0001.99,0005.39,0001.46
2024-01-29 05:26:00,SystemResetWarning,0837.0,5.01,000.00,025.2,023.8,000.0,033.6,026.5,12.5,0000.0,0002.02,0004.90,0001.48
2024-01-29 05:27:00,SystemResetWarning,0837.0,5.01,000.00,025.2,023.8,000.0,033.5,026.5,12.4,0000.0,0002.04,0004.50,0001.50
2024-01-29 05:28:00,SystemResetWarning,0837.0,5.01,000.00,025.1,023.8,000.0,033.5,026.5,12.4,0000.0,0002.06,0004.49,0001.51
2024-01-29 05:29:00,SystemResetWarning,0837.0,5.00,000.00,025.1,023.8,000.0,033.5,026.5,12.5,0000.0,0002.08,0005.07,0001.52
2024-01-29 05:30:00,SystemResetWarning,0837.0,5.00,000.00,025.1,023.8,000.0,033.5,026.5,12.5,0000.0,0002.06,0004.82,0001.53
2024-01-29 05:31:00,SystemResetWarning,0837.0,5.00,000.00,025.1,023.7,000.0,033.5,026.5,12.5,0000.0,0002.08,0005.51,0001.53
2024-01-29 05:32:00,SystemResetWarning,0836.9,5.00,000.00,025.1,023.7,000.0,033.5,026.5,12.5,0000.0,0002.08,0005.84,0001.51
2024-01-29 05:33:00,SystemResetWarning,0836.9,4.99,000.00,025.1,023.7,000.0,033.5,026.4,12.6,0000.0,0002.03,0005.63,0001.50
2024-01-29 05:34:00,SystemResetWarning,0837.0,4.99,000.00,025.1,023.7,000.0,033.5,026.4,12.6,0000.0,0001.96,0005.40,0001.48
2024-01-29 05:35:00,SystemResetWarning,0837.0,5.00,000.00,025.1,023.7,000.0,033.5,026.4,12.6,0000.0,0001.92,0006.01,0001.46
2024-01-29 05:36:00,SystemResetWarning,0836.9,5.00,000.00,025.1,023.7,000.0,033.4,026.4,12.6,0000.0,0001.85,0005.79,0001.44
2024-01-29 05:37:00,SystemResetWarning,0836.9,5.00,000.00,025.0,023.7,000.0,033.4,026.4,12.7,0000.0,0001.82,0005.44,0001.41
2024-01-29 05:38:00,SystemResetWarning,0836.9,5.00,000.00,025.0,023.7,000.0,033.4,026.4,12.8,0000.0,0001.73,0005.33,0001.37
2024-01-29 05:39:00,SystemResetWarning,0836.9,5.00,000.00,025.0,023.7,000.0,033.4,026.4,12.7,0000.0,0001.69,0005.36,0001.34
2024-01-29 05:40:00,SystemResetWarning,0836.9,5.00,000.00,025.0,023.7,000.0,033.4,026.4,12.8,0000.0,0001.61,0005.34,0001.30
2024-01-29 05:41:00,SystemResetWarning,0836.9,5.00,000.00,025.0,023.7,000.0,033.4,026.4,12.7,0000.0,0001.55,0005.09,0001.25
2024-01-29 05:42:00,SystemResetWarning,0836.9,5.00,000.00,025.0,023.7,000.0,033.4,026.4,12.7,0000.0,0001.46,0004.48,0001.20
2024-01-29 05:43:00,SystemResetWarning,0836.9,5.00,000.00,025.0,023.6,000.0,033.4,026.4,12.7,0000.0,0001.41,0003.88,0001.19
2024-01-29 05:44:00,SystemResetWarning,0836.9,5.01,000.00,025.0,023.6,000.0,033.4,026.3,12.7,0000.0,0001.42,0004.00,0001.18
2024-01-29 05:45:00,SystemResetWarning,0837.0,5.00,000.00,025.0,023.6,000.0,033.3,026.3,12.7,0000.0,0001.43,0004.13,0001.17
2024-01-29 05:46:00,SystemResetWarning,0836.9,5.00,000.00,025.0,023.6,000.0,033.3,026.3,12.7,0000.0,0001.37,0003.21,0001.14
2024-01-29 05:47:00,SystemResetWarning,0836.9,5.00,000.00,025.0,023.6,000.0,033.3,026.3,12.7,0000.0,0001.34,0002.78,0001.12
2024-01-29 05:48:00,SystemResetWarning,0836.9,5.00,000.00,025.0,023.6,000.0,033.3,026.3,12.7,0000.0,0001.33,0002.67,0001.10
2024-01-29 05:49:00,SystemResetWarning,0836.9,5.00,000.00,024.9,023.6,000.0,033.3,026.3,12.7,0000.0,0001.37,0002.74,0001.08
2024-01-29 05:50:00,SystemResetWarning,0836.9,5.00,000.00,024.9,023.6,000.0,033.3,026.3,12.7,0000.0,0001.34,0002.63,0001.06
2024-01-29 05:51:00,SystemResetWarning,0837.0,4.99,000.00,024.9,023.6,000.0,033.3,026.3,12.7,0000.0,0001.31,0002.21,0001.03
2024-01-29 05:52:00,SystemResetWarning,0837.0,5.00,000.00,024.9,023.6,000.0,033.3,026.3,12.7,0000.0,0001.32,0002.06,0001.02
2024-01-29 05:53:00,SystemResetWarning,0836.9,5.00,000.00,024.9,023.6,000.0,033.3,026.3,12.7,0000.0,0001.32,0002.16,0001.00
2024-01-29 05:54:00,SystemResetWarning,0836.9,5.00,000.00,024.9,023.6,000.0,033.3,026.3,12.7,0000.0,0001.32,0002.24,0000.98
2024-01-29 05:55:00,SystemResetWarning,0837.0,5.00,000.00,024.9,023.6,000.0,033.2,026.3,12.8,0000.0,0001.27,0002.13,0000.95
2024-01-29 05:56:00,SystemResetWarning,0837.0,4.99,000.00,024.9,023.5,000.0,033.2,026.3,12.8,0000.0,0001.21,0001.93,0000.93
2024-01-29 05:57:00,SystemResetWarning,0837.0,5.00,000.00,024.9,023.5,000.0,033.2,026.3,12.8,0000.0,0001.21,0002.26,0000.92
2024-01-29 05:58:00,SystemResetWarning,0837.0,5.00,000.00,024.9,023.5,000.0,033.2,026.2,12.8,0000.0,0001.21,0003.60,0000.91
2024-01-29 05:59:00,SystemResetWarning,0837.0,5.00,000.00,024.9,023.5,000.0,033.2,026.3,12.8,0000.0,0001.19,0003.56,0000.89
